| time (UTC) | temp F | wind direction | speed MPH | gust MPH | rain 1hr in | rain 24hr in | rain mn in | humidity % | barometer mb |
| 20260502163016 | 42 | 346 | 12.0 | 20.0 | 0.00 | 0.04 | 0.01 | 57 | 1014.5 |
| 20260502161517 | 42 | 292 | 7.0 | 17.0 | 0.00 | 0.04 | 0.01 | 63 | 1014.5 |
| 20260502151537 | 40 | 318 | 5.0 | 14.0 | 0.00 | 0.04 | 0.01 | 70 | 1014.8 |
| 20260502123003 | 35 | 294 | 6.0 | 11.0 | 0.00 | 0.04 | 0.01 | 88 | 1015.3 |
| 20260502121504 | 35 | 345 | 4.0 | 10.0 | 0.00 | 0.04 | 0.01 | 89 | 1015.3 |
| 20260502114515 | 35 | 285 | 4.0 | 10.0 | 0.00 | 0.04 | 0.01 | 91 | 1015.0 |
| 20260502113014 | 34 | 299 | 3.0 | 7.0 | 0.00 | 0.04 | 0.01 | 91 | 1015.0 |
| 20260502111504 | 34 | 293 | 5.0 | 13.0 | 0.00 | 0.04 | 0.01 | 90 | 1014.7 |
| 20260502110011 | 35 | 307 | 3.0 | 9.0 | 0.00 | 0.04 | 0.01 | 91 | 1014.5 |
| 20260502104511 | 35 | 311 | 4.0 | 10.0 | 0.00 | 0.04 | 0.01 | 92 | 1014.4 |
| 20260502103017 | 35 | 306 | 3.0 | 12.0 | 0.00 | 0.04 | 0.01 | 93 | 1014.3 |
| 20260502101524 | 35 | 327 | 3.0 | 7.0 | 0.00 | 0.04 | 0.01 | 95 | 1014.1 |
| 20260502091520 | 36 | 283 | 2.0 | 6.0 | 0.00 | 0.04 | 0.01 | 97 | 1013.3 |
| 20260502071511 | 34 | 235 | 0.0 | 2.0 | 0.00 | 0.03 | 0.00 | 96 | 1013.1 |
| 20260502070035 | 34 | 235 | 0.0 | 1.0 | 0.00 | 0.03 | 0.00 | 96 | 1013.0 |
| 20260502064523 | 35 | 235 | 0.0 | 0.0 | 0.00 | 0.03 | 0.00 | 96 | 1013.0 |
| 20260502063034 | 35 | 235 | 0.0 | 1.0 | 0.00 | 0.03 | 0.00 | 95 | 1013.1 |
| 20260502061510 | 35 | 235 | 0.0 | 2.0 | 0.00 | 0.03 | 0.00 | 96 | 1013.3 |
| 20260502060014 | 36 | 257 | 1.0 | 4.0 | 0.00 | 0.03 | 0.00 | 96 | 1013.6 |
| 20260502054530 | 35 | 246 | 0.0 | 3.0 | 0.00 | 0.03 | 0.00 | 96 | 1013.6 |
| 20260502053024 | 35 | 149 | 0.0 | 0.0 | 0.00 | 0.03 | 0.00 | 95 | 1013.6 |
| 20260502051526 | 35 | 149 | 0.0 | 0.0 | 0.00 | 0.03 | 0.00 | 95 | 1013.7 |
| 20260502050016 | 35 | 149 | 0.0 | 0.0 | 0.00 | 0.03 | 0.00 | 95 | 1013.6 |
| 20260502044516 | 35 | 149 | 0.0 | 0.0 | 0.00 | 0.03 | 0.00 | 94 | 1013.7 |
| 20260502043022 | 36 | 149 | 0.0 | 1.0 | 0.00 | 0.03 | 0.00 | 94 | 1013.7 |
| 20260502041503 | 36 | 149 | 0.0 | 1.0 | 0.00 | 0.03 | 0.00 | 94 | 1013.7 |
| 20260502040008 | 36 | 149 | 0.0 | 2.0 | 0.00 | 0.03 | 0.00 | 94 | 1013.6 |
| 20260502034521 | 36 | 149 | 0.0 | 0.0 | 0.00 | 0.03 | 0.03 | 94 | 1013.6 |
| 20260502033019 | 36 | 149 | 0.0 | 0.0 | 0.01 | 0.03 | 0.03 | 94 | 1013.7 |
| 20260502031524 | 36 | 149 | 0.0 | 2.0 | 0.01 | 0.03 | 0.03 | 94 | 1013.5 |
| 20260502030008 | 36 | 71 | 0.0 | 2.0 | 0.02 | 0.03 | 0.03 | 94 | 1013.4 |
| 20260502024515 | 36 | 71 | 0.0 | 2.0 | 0.02 | 0.03 | 0.03 | 93 | 1013.5 |
| 20260502023016 | 36 | 56 | 0.0 | 2.0 | 0.01 | 0.02 | 0.02 | 92 | 1013.4 |
| 20260502021528 | 37 | 46 | 0.0 | 2.0 | 0.01 | 0.02 | 0.02 | 92 | 1013.5 |
| 20260502020024 | 37 | 34 | 1.0 | 3.0 | 0.01 | 0.01 | 0.01 | 91 | 1013.6 |
| 20260502014514 | 37 | 30 | 0.0 | 2.0 | 0.01 | 0.01 | 0.01 | 91 | 1013.6 |
| 20260502013013 | 37 | 30 | 0.0 | 1.0 | 0.01 | 0.01 | 0.01 | 90 | 1013.5 |
| 20260502011519 | 37 | 30 | 0.0 | 3.0 | 0.01 | 0.01 | 0.01 | 89 | 1013.4 |
| 20260502010020 | 37 | 17 | 1.0 | 4.0 | 0.00 | 0.00 | 0.00 | 87 | 1013.4 |
| 20260502004528 | 38 | 329 | 1.0 | 4.0 | 0.00 | 0.00 | 0.00 | 85 | 1013.4 |
| 20260502003012 | 38 | 30 | 1.0 | 4.0 | 0.00 | 0.00 | 0.00 | 82 | 1013.2 |
| 20260502001518 | 39 | 11 | 1.0 | 4.0 | 0.00 | 0.00 | 0.00 | 79 | 1013.1 |
| 20260502000023 | 39 | 69 | 1.0 | 5.0 | 0.00 | 0.00 | 0.00 | 76 | 1013.0 |
| 20260501234526 | 40 | 49 | 1.0 | 8.0 | 0.00 | 0.00 | 0.00 | 71 | 1012.8 |
| 20260501233025 | 41 | 63 | 2.0 | 11.0 | 0.00 | 0.00 | 0.00 | 66 | 1012.7 |
| 20260501231511 | 42 | 57 | 3.0 | 8.0 | 0.00 | 0.00 | 0.00 | 62 | 1012.3 |
| 20260501230018 | 43 | 36 | 2.0 | 6.0 | 0.00 | 0.00 | 0.00 | 60 | 1012.4 |
| 20260501224529 | 44 | 336 | 7.0 | 11.0 | 0.00 | 0.00 | 0.00 | 57 | 1012.3 |
| 20260501223024 | 45 | 24 | 3.0 | 8.0 | 0.00 | 0.00 | 0.00 | 55 | 1012.3 |
| 20260501221526 | 45 | 347 | 1.0 | 9.0 | 0.00 | 0.00 | 0.00 | 55 | 1012.3 |
| 20260501220023 | 45 | 326 | 4.0 | 8.0 | 0.00 | 0.00 | 0.00 | 53 | 1012.3 |
| 20260501214518 | 46 | 355 | 4.0 | 9.0 | 0.00 | 0.00 | 0.00 | 52 | 1012.2 |
| 20260501213022 | 46 | 18 | 3.0 | 11.0 | 0.00 | 0.00 | 0.00 | 53 | 1012.0 |
| 20260501211527 | 47 | 348 | 6.0 | 13.0 | 0.00 | 0.00 | 0.00 | 52 | 1011.9 |
| 20260501210029 | 47 | 34 | 5.0 | 11.0 | 0.00 | 0.00 | 0.00 | 52 | 1011.8 |
| 20260501204515 | 48 | 38 | 6.0 | 12.0 | 0.00 | 0.00 | 0.00 | 49 | 1011.6 |
| 20260501203020 | 48 | 348 | 4.0 | 12.0 | 0.00 | 0.00 | 0.00 | 48 | 1011.6 |
| 20260501201527 | 49 | 5 | 4.0 | 9.0 | 0.00 | 0.00 | 0.00 | 49 | 1011.6 |
| 20260501200037 | 48 | 80 | 6.0 | 11.0 | 0.00 | 0.00 | 0.00 | 49 | 1011.7 |
| 20260501194537 | 48 | 71 | 4.0 | 9.0 | 0.00 | 0.00 | 0.00 | 48 | 1011.8 |
| 20260501193019 | 49 | 317 | 5.0 | 10.0 | 0.00 | 0.00 | 0.00 | 48 | 1011.9 |
| 20260501191504 | 49 | 22 | 2.0 | 11.0 | 0.00 | 0.00 | 0.00 | 48 | 1011.9 |
| 20260501190008 | 49 | 333 | 3.0 | 9.0 | 0.00 | 0.00 | 0.00 | 51 | 1011.9 |
| 20260501184513 | 50 | 352 | 4.0 | 10.0 | 0.00 | 0.00 | 0.00 | 47 | 1012.0 |
| 20260501183022 | 50 | 341 | 2.0 | 11.0 | 0.00 | 0.00 | 0.00 | 48 | 1012.0 |
| 20260501181523 | 52 | 275 | 1.0 | 9.0 | 0.00 | 0.00 | 0.00 | 43 | 1011.9 |
| 20260501180008 | 51 | 276 | 4.0 | 12.0 | 0.00 | 0.00 | 0.00 | 42 | 1011.9 |